Time,TemperatureF,DewpointF,PressureIn,WindDirection,WindDirectionDegrees,WindSpeedMPH,WindSpeedGustMPH,Humidity,HourlyPrecipIn,Conditions,Clouds,dailyrainin,SoftwareType,DateUTC
2013-02-14 00:01:00,33.7,33.0,29.60,NW,313,0.0,-999.0,96,-99.99,,,0.00,weatherlink.com 1.10,2013-02-14 05:01:00,
2013-02-14 00:15:00,33.7,33.0,29.61,NW,309,1.0,-999.0,96,-99.99,,,0.00,weatherlink.com 1.10,2013-02-14 05:15:00,
2013-02-14 00:30:00,33.8,33.0,29.61,NW,320,2.0,-999.0,96,-99.99,,,0.00,weatherlink.com 1.10,2013-02-14 05:30:00,
2013-02-14 00:45:00,33.8,33.0,29.62,NNW,341,2.0,-999.0,97,-99.99,,,0.00,weatherlink.com 1.10,2013-02-14 05:45:00,
2013-02-14 01:01:00,33.9,33.0,29.62,NW,319,0.0,-999.0,96,-99.99,,,0.00,weatherlink.com 1.10,2013-02-14 06:01:00,
2013-02-14 01:15:00,33.9,33.0,29.62,North,355,1.0,-999.0,96,-99.99,,,0.00,weatherlink.com 1.10,2013-02-14 06:15:00,
2013-02-14 01:30:00,34.0,33.0,29.62,NW,320,4.0,-999.0,97,-99.99,,,0.01,weatherlink.com 1.10,2013-02-14 06:30:00,
2013-02-14 01:45:00,34.0,33.0,29.62,NW,326,4.0,-999.0,97,-99.99,,,0.01,weatherlink.com 1.10,2013-02-14 06:45:00,
2013-02-14 02:00:00,34.1,33.0,29.63,NW,325,0.0,-999.0,97,-99.99,,,0.01,weatherlink.com 1.10,2013-02-14 07:00:00,
2013-02-14 02:15:00,34.1,33.0,29.64,West,277,2.0,-999.0,97,-99.99,,,0.01,weatherlink.com 1.10,2013-02-14 07:15:00,
2013-02-14 02:30:00,34.2,34.0,29.66,NW,304,0.0,-999.0,97,-99.99,,,0.01,weatherlink.com 1.10,2013-02-14 07:30:00,
2013-02-14 02:45:00,34.3,34.0,29.68,NW,318,2.0,-999.0,97,-99.99,,,0.02,weatherlink.com 1.10,2013-02-14 07:45:00,
2013-02-14 03:00:00,34.2,34.0,29.69,WNW,297,5.0,-999.0,97,-99.99,,,0.02,weatherlink.com 1.10,2013-02-14 08:00:00,
2013-02-14 03:15:00,34.3,34.0,29.68,WNW,297,2.0,-999.0,97,-99.99,,,0.02,weatherlink.com 1.10,2013-02-14 08:15:00,
2013-02-14 03:30:00,34.3,34.0,29.69,NW,304,6.0,-999.0,97,-99.99,,,0.02,weatherlink.com 1.10,2013-02-14 08:30:00,
2013-02-14 03:45:00,34.2,34.0,29.70,NW,307,2.0,-999.0,97,-99.99,,,0.02,weatherlink.com 1.10,2013-02-14 08:45:00,
2013-02-14 04:00:00,34.2,34.0,29.70,NW,307,4.0,-999.0,97,-99.99,,,0.02,weatherlink.com 1.10,2013-02-14 09:00:00,
2013-02-14 04:15:00,34.1,33.0,29.71,NW,307,4.0,-999.0,97,-99.99,,,0.02,weatherlink.com 1.10,2013-02-14 09:15:00,
2013-02-14 04:30:00,34.2,34.0,29.70,NW,307,0.0,-999.0,97,-99.99,,,0.02,weatherlink.com 1.10,2013-02-14 09:30:00,
2013-02-14 04:45:00,33.9,33.0,29.72,NW,307,0.0,-999.0,96,-99.99,,,0.03,weatherlink.com 1.10,2013-02-14 09:45:00,
2013-02-14 05:00:00,33.7,33.0,29.72,NW,307,0.0,-999.0,97,-99.99,,,0.03,weatherlink.com 1.10,2013-02-14 10:00:00,
2013-02-14 05:15:00,33.2,32.0,29.73,NW,307,0.0,-999.0,96,-99.99,,,0.03,weatherlink.com 1.10,2013-02-14 10:15:00,
2013-02-14 05:30:00,32.8,32.0,29.73,NW,307,0.0,-999.0,96,-99.99,,,0.03,weatherlink.com 1.10,2013-02-14 10:30:00,
2013-02-14 05:45:00,32.8,32.0,29.74,NW,307,0.0,-999.0,97,-99.99,,,0.03,weatherlink.com 1.10,2013-02-14 10:45:00,
2013-02-14 06:00:00,32.7,32.0,29.75,NW,307,0.0,-999.0,97,-99.99,,,0.03,weatherlink.com 1.10,2013-02-14 11:00:00,
2013-02-14 06:15:00,32.7,32.0,29.76,NW,307,2.0,-999.0,97,-99.99,,,0.03,weatherlink.com 1.10,2013-02-14 11:15:00,
2013-02-14 06:30:00,32.5,32.0,29.77,NW,307,1.0,-999.0,97,-99.99,,,0.03,weatherlink.com 1.10,2013-02-14 11:30:00,
2013-02-14 06:45:00,32.5,32.0,29.78,West,262,4.0,-999.0,97,-99.99,,,0.03,weatherlink.com 1.10,2013-02-14 11:45:00,
2013-02-14 07:00:00,32.5,32.0,29.79,WSW,246,3.0,-999.0,97,-99.99,,,0.03,weatherlink.com 1.10,2013-02-14 12:00:00,
2013-02-14 07:15:00,32.6,32.0,29.80,WSW,246,2.0,-999.0,97,-99.99,,,0.03,weatherlink.com 1.10,2013-02-14 12:15:00,
2013-02-14 07:30:00,32.7,32.0,29.80,WSW,246,0.0,-999.0,97,-99.99,,,0.03,weatherlink.com 1.10,2013-02-14 12:30:00,
2013-02-14 07:45:00,32.8,32.0,29.81,WSW,246,0.0,-999.0,97,-99.99,,,0.03,weatherlink.com 1.10,2013-02-14 12:45:00,
2013-02-14 08:00:00,33.3,33.0,29.82,WSW,246,3.0,-999.0,97,-99.99,,,0.03,weatherlink.com 1.10,2013-02-14 13:00:00,
2013-02-14 08:15:00,34.1,33.0,29.83,West,274,2.0,-999.0,97,-99.99,,,0.03,weatherlink.com 1.10,2013-02-14 13:15:00,
2013-02-14 08:30:00,34.6,34.0,29.84,West,271,2.0,-999.0,97,-99.99,,,0.03,weatherlink.com 1.10,2013-02-14 13:30:00,
2013-02-14 08:45:00,35.1,34.0,29.84,West,275,2.0,-999.0,97,-99.99,,,0.03,weatherlink.com 1.10,2013-02-14 13:45:00,
2013-02-14 09:00:00,35.7,35.0,29.84,West,262,2.0,-999.0,97,-99.99,,,0.03,weatherlink.com 1.10,2013-02-14 14:00:00,
2013-02-14 09:15:00,36.3,35.0,29.85,West,281,5.0,-999.0,96,-99.99,,,0.05,weatherlink.com 1.10,2013-02-14 14:15:00,
2013-02-14 09:30:00,36.8,36.0,29.85,WSW,252,5.0,-999.0,96,-99.99,,,0.07,weatherlink.com 1.10,2013-02-14 14:30:00,
2013-02-14 09:45:00,37.4,36.0,29.86,West,261,1.0,-999.0,95,-99.99,,,0.08,weatherlink.com 1.10,2013-02-14 14:45:00,
2013-02-14 10:00:00,37.4,36.0,29.86,WNW,290,8.0,-999.0,93,-99.99,,,0.10,weatherlink.com 1.10,2013-02-14 15:00:00,
2013-02-14 10:15:00,38.2,36.0,29.86,WSW,254,4.0,-999.0,92,-99.99,,,0.12,weatherlink.com 1.10,2013-02-14 15:15:00,
2013-02-14 10:30:00,38.5,36.0,29.86,West,277,7.0,-999.0,90,-99.99,,,0.14,weatherlink.com 1.10,2013-02-14 15:30:00,
2013-02-14 10:45:00,39.1,36.0,29.86,West,273,0.0,-999.0,89,-99.99,,,0.15,weatherlink.com 1.10,2013-02-14 15:45:00,
2013-02-14 11:00:00,39.1,35.0,29.86,North,355,5.0,-999.0,86,-99.99,,,0.15,weatherlink.com 1.10,2013-02-14 16:00:00,
2013-02-14 11:15:00,39.7,36.0,29.86,SW,221,6.0,-999.0,85,-99.99,,,0.15,weatherlink.com 1.10,2013-02-14 16:15:00,
2013-02-14 11:30:00,40.5,35.0,29.87,SW,223,4.0,-999.0,81,-99.99,,,0.15,weatherlink.com 1.10,2013-02-14 16:30:00,
2013-02-14 11:45:00,41.2,35.0,29.87,West,281,5.0,-999.0,79,-99.99,,,0.15,weatherlink.com 1.10,2013-02-14 16:45:00,
2013-02-14 12:00:00,41.8,35.0,29.87,NNW,338,1.0,-999.0,77,-99.99,,,0.15,weatherlink.com 1.10,2013-02-14 17:00:00,
2013-02-14 12:15:00,42.5,34.0,29.86,SW,219,6.0,-999.0,73,-99.99,,,0.15,weatherlink.com 1.10,2013-02-14 17:15:00,
2013-02-14 12:30:00,43.1,35.0,29.86,SSW,213,3.0,-999.0,73,-99.99,,,0.15,weatherlink.com 1.10,2013-02-14 17:30:00,
2013-02-14 12:45:00,44.0,32.0,29.86,WNW,282,5.0,-999.0,64,-99.99,,,0.15,weatherlink.com 1.10,2013-02-14 17:45:00,
2013-02-14 13:00:00,44.1,34.0,29.85,NNW,327,6.0,-999.0,68,-99.99,,,0.15,weatherlink.com 1.10,2013-02-14 18:00:00,
2013-02-14 13:15:00,44.3,32.0,29.85,West,267,1.0,-999.0,62,-99.99,,,0.15,weatherlink.com 1.10,2013-02-14 18:15:00,
2013-02-14 13:30:00,44.3,33.0,29.84,North,5,4.0,-999.0,64,-99.99,,,0.15,weatherlink.com 1.10,2013-02-14 18:30:00,
2013-02-14 13:45:00,45.0,32.0,29.85,WSW,248,4.0,-999.0,60,-99.99,,,0.15,weatherlink.com 1.10,2013-02-14 18:45:00,
2013-02-14 14:00:00,45.9,32.0,29.84,WSW,244,2.0,-999.0,58,-99.99,,,0.15,weatherlink.com 1.10,2013-02-14 19:00:00,
2013-02-14 14:15:00,46.2,32.0,29.84,SW,235,0.0,-999.0,59,-99.99,,,0.15,weatherlink.com 1.10,2013-02-14 19:15:00,
2013-02-14 14:30:00,46.2,32.0,29.85,South,181,4.0,-999.0,57,-99.99,,,0.15,weatherlink.com 1.10,2013-02-14 19:30:00,
2013-02-14 14:45:00,46.3,32.0,29.86,SSW,205,2.0,-999.0,57,-99.99,,,0.15,weatherlink.com 1.10,2013-02-14 19:45:00,
2013-02-14 15:00:00,46.7,32.0,29.86,South,188,5.0,-999.0,57,-99.99,,,0.15,weatherlink.com 1.10,2013-02-14 20:00:00,
2013-02-14 15:15:00,46.6,32.0,29.86,WSW,246,7.0,-999.0,57,-99.99,,,0.15,weatherlink.com 1.10,2013-02-14 20:15:00,
2013-02-14 15:30:00,46.9,32.0,29.86,SW,216,6.0,-999.0,56,-99.99,,,0.15,weatherlink.com 1.10,2013-02-14 20:30:00,
2013-02-14 15:45:00,47.1,32.0,29.86,WSW,240,3.0,-999.0,56,-99.99,,,0.15,weatherlink.com 1.10,2013-02-14 20:45:00,
2013-02-14 16:00:00,47.0,31.0,29.86,SSW,210,1.0,-999.0,55,-99.99,,,0.15,weatherlink.com 1.10,2013-02-14 21:00:00,
2013-02-14 16:15:00,46.8,32.0,29.87,West,266,7.0,-999.0,56,-99.99,,,0.15,weatherlink.com 1.10,2013-02-14 21:15:00,
2013-02-14 16:30:00,46.7,32.0,29.88,WSW,248,7.0,-999.0,56,-99.99,,,0.15,weatherlink.com 1.10,2013-02-14 21:30:00,
2013-02-14 16:45:00,46.2,32.0,29.88,SW,217,0.0,-999.0,58,-99.99,,,0.15,weatherlink.com 1.10,2013-02-14 21:45:00,
2013-02-14 17:00:00,44.5,35.0,29.88,SSE,158,0.0,-999.0,70,-99.99,,,0.15,weatherlink.com 1.10,2013-02-14 22:00:00,
2013-02-14 17:15:00,43.0,36.0,29.88,SSE,158,0.0,-999.0,75,-99.99,,,0.15,weatherlink.com 1.10,2013-02-14 22:15:00,
2013-02-14 17:30:00,42.0,36.0,29.88,SSE,158,0.0,-999.0,78,-99.99,,,0.15,weatherlink.com 1.10,2013-02-14 22:30:00,
2013-02-14 17:45:00,41.0,36.0,29.88,SSE,158,0.0,-999.0,81,-99.99,,,0.15,weatherlink.com 1.10,2013-02-14 22:45:00,
2013-02-14 18:00:00,40.3,36.0,29.88,SSE,158,0.0,-999.0,84,-99.99,,,0.15,weatherlink.com 1.10,2013-02-14 23:00:00,
2013-02-14 18:15:00,39.8,36.0,29.89,SSE,158,0.0,-999.0,86,-99.99,,,0.15,weatherlink.com 1.10,2013-02-14 23:15:00,
2013-02-14 18:30:00,39.5,36.0,29.89,SSE,158,2.0,-999.0,88,-99.99,,,0.15,weatherlink.com 1.10,2013-02-14 23:30:00,
2013-02-14 18:45:00,39.2,36.0,29.90,South,173,1.0,-999.0,89,-99.99,,,0.15,weatherlink.com 1.10,2013-02-14 23:45:00,
2013-02-14 19:00:00,39.0,36.0,29.90,SSW,200,1.0,-999.0,90,-99.99,,,0.15,weatherlink.com 1.10,2013-02-15 00:00:00,
2013-02-14 19:15:00,38.7,36.0,29.90,SSW,200,2.0,-999.0,90,-99.99,,,0.15,weatherlink.com 1.10,2013-02-15 00:15:00,
2013-02-14 19:30:00,38.3,36.0,29.90,SSW,200,0.0,-999.0,90,-99.99,,,0.15,weatherlink.com 1.10,2013-02-15 00:30:00,
2013-02-14 19:45:00,37.9,36.0,29.90,SSW,200,0.0,-999.0,91,-99.99,,,0.15,weatherlink.com 1.10,2013-02-15 00:45:00,
2013-02-14 20:00:00,37.8,36.0,29.91,SSW,200,3.0,-999.0,92,-99.99,,,0.15,weatherlink.com 1.10,2013-02-15 01:00:00,
2013-02-14 20:15:00,37.6,36.0,29.91,SSW,203,6.0,-999.0,92,-99.99,,,0.15,weatherlink.com 1.10,2013-02-15 01:15:00,
2013-02-14 20:30:00,37.5,35.0,29.91,South,189,7.0,-999.0,92,-99.99,,,0.15,weatherlink.com 1.10,2013-02-15 01:30:00,
2013-02-14 20:45:00,37.3,35.0,29.92,SSW,194,3.0,-999.0,92,-99.99,,,0.15,weatherlink.com 1.10,2013-02-15 01:45:00,
2013-02-14 21:00:00,36.9,35.0,29.92,South,189,0.0,-999.0,92,-99.99,,,0.15,weatherlink.com 1.10,2013-02-15 02:00:00,
2013-02-14 21:15:00,36.5,35.0,29.92,SSW,192,3.0,-999.0,93,-99.99,,,0.15,weatherlink.com 1.10,2013-02-15 02:15:00,
2013-02-14 21:30:00,36.2,34.0,29.92,SSW,192,3.0,-999.0,93,-99.99,,,0.15,weatherlink.com 1.10,2013-02-15 02:30:00,
2013-02-14 21:45:00,35.9,34.0,29.91,SSW,192,2.0,-999.0,94,-99.99,,,0.15,weatherlink.com 1.10,2013-02-15 02:45:00,
2013-02-14 22:00:00,35.7,34.0,29.92,SSW,192,3.0,-999.0,94,-99.99,,,0.15,weatherlink.com 1.10,2013-02-15 03:00:00,
2013-02-14 22:15:00,35.4,34.0,29.92,SSW,192,3.0,-999.0,94,-99.99,,,0.15,weatherlink.com 1.10,2013-02-15 03:15:00,
2013-02-14 22:30:00,35.2,34.0,29.92,SSW,200,4.0,-999.0,95,-99.99,,,0.15,weatherlink.com 1.10,2013-02-15 03:30:00,
2013-02-14 22:45:00,35.0,34.0,29.92,South,188,4.0,-999.0,95,-99.99,,,0.15,weatherlink.com 1.10,2013-02-15 03:45:00,
2013-02-14 23:00:00,35.2,34.0,29.91,South,187,3.0,-999.0,94,-99.99,,,0.15,weatherlink.com 1.10,2013-02-15 04:00:00,
2013-02-14 23:15:00,35.1,34.0,29.91,SSW,195,3.0,-999.0,94,-99.99,,,0.15,weatherlink.com 1.10,2013-02-15 04:15:00,
2013-02-14 23:30:00,34.9,33.0,29.92,SSW,195,3.0,-999.0,93,-99.99,,,0.15,weatherlink.com 1.10,2013-02-15 04:30:00,
2013-02-14 23:45:00,34.7,33.0,29.93,SSW,210,5.0,-999.0,94,-99.99,,,0.15,weatherlink.com 1.10,2013-02-15 04:45:00,